Date String (YYYY-MM-DD hh:mm:ss) UTC,Instrument flags,Ambient pressure (hPa),Sample flow (lpm),Bypass flow (lpm),Sample temperature (°C),Ambient temperature (°C),ASC tube jacket temperature (°C),LED temperature (°C),Box temperature (°C),Sample RH (%),Span deviation,Mass concentration (μg/m³),Mass concentration (μg/m³),Mass concentration (μg/m³)
DateTimeUTC,F1_M11,P_M11,Q1_M11,Q2_M11,T1_M11,T2_M11,T3_M11,T4_M11,T5_M11,U1_M11,ZSPAN_M11,X0_M11,X2_M11,X1_M11
2023-03-09 05:00:00,,0823.0,5.02,0.00,22.7,22.8,00.0,31.3,24.6,16.9,-001.2,0014.20,0009.40,0009.03
2023-03-09 05:01:00,,0822.9,5.02,0.00,22.8,23.5,00.0,31.4,24.8,16.8,-001.3,0013.91,0009.45,0009.08
2023-03-09 05:02:00,,0822.8,5.00,0.00,22.9,23.1,00.0,31.4,24.8,16.7,-001.5,0013.89,0009.46,0009.10
2023-03-09 05:03:00,,0822.7,4.96,0.00,22.9,22.6,00.0,31.4,24.7,16.7,-001.2,0013.97,0009.51,0009.16
2023-03-09 05:04:00,,0822.7,5.00,0.00,22.8,22.2,00.0,31.5,24.6,16.7,-001.3,0014.04,0009.55,0009.20
2023-03-09 05:05:00,,0822.7,4.99,0.00,22.8,21.8,00.0,31.5,24.6,16.7,-001.5,0014.13,0009.58,0009.23
2023-03-09 05:06:00,,0822.8,5.00,0.00,22.8,21.6,00.0,31.5,24.5,16.7,-001.4,0014.34,0009.65,0009.28
2023-03-09 05:07:00,,0822.9,5.01,0.00,22.8,21.4,00.0,31.5,24.4,16.8,-001.5,0014.82,0009.70,0009.32
2023-03-09 05:08:00,,0823.0,5.00,0.00,22.7,21.3,00.0,31.5,24.4,16.8,-001.6,0014.86,0009.76,0009.36
2023-03-09 05:09:00,,0822.9,4.99,0.00,22.7,21.1,00.0,31.5,24.4,16.8,-001.6,0014.86,0009.78,0009.39
2023-03-09 05:10:00,,0822.9,5.00,0.00,22.7,21.1,00.0,31.4,24.3,16.8,-001.7,0014.84,0009.79,0009.42
2023-03-09 05:11:00,,0822.8,5.01,0.00,22.7,21.0,00.0,31.4,24.3,16.8,-001.6,0014.90,0009.85,0009.49
2023-03-09 05:12:00,,0822.8,4.99,0.00,22.6,20.9,00.0,31.4,24.2,16.9,-001.4,0015.02,0009.92,0009.55
2023-03-09 05:13:00,,0822.7,5.00,0.00,22.6,20.9,00.0,31.4,24.3,16.9,-001.1,0015.11,0009.99,0009.60
2023-03-09 05:14:00,,0822.8,5.00,0.00,22.6,20.8,00.0,31.4,24.2,16.9,-001.2,0015.68,0010.02,0009.62
2023-03-09 05:15:00,,0822.8,5.00,0.00,22.6,21.0,00.0,31.4,24.3,16.9,-001.2,0015.86,0010.07,0009.67
2023-03-09 05:16:00,,0822.8,5.01,0.00,22.7,22.0,00.0,31.4,24.5,16.9,-001.1,0015.96,0010.13,0009.71
2023-03-09 05:17:00,,0822.8,4.97,0.00,22.8,23.0,00.0,31.4,24.7,16.8,-001.1,0016.05,0010.17,0009.73
2023-03-09 05:18:00,,0822.8,4.99,0.00,22.9,23.1,00.0,31.4,24.8,16.7,-001.2,0015.86,0010.24,0009.78
2023-03-09 05:19:00,,0822.9,5.02,0.00,22.9,22.7,00.0,31.5,24.7,16.7,-001.3,0016.01,0010.30,0009.84
2023-03-09 05:20:00,,0823.0,4.99,0.00,22.9,22.3,00.0,31.5,24.7,16.7,-001.2,0016.16,0010.36,0009.91
2023-03-09 05:21:00,,0822.9,5.01,0.00,22.8,22.0,00.0,31.5,24.6,16.7,-001.1,0016.23,0010.43,0009.97
2023-03-09 05:22:00,,0822.8,5.00,0.00,22.8,21.7,00.0,31.5,24.6,16.7,-000.9,0016.30,0010.48,0010.02
2023-03-09 05:23:00,,0822.8,5.00,0.00,22.8,21.5,00.0,31.5,24.5,16.7,-000.9,0016.36,0010.51,0010.05
2023-03-09 05:24:00,,0822.8,5.01,0.00,22.8,21.3,00.0,31.5,24.5,16.7,-000.8,0016.47,0010.59,0010.14
2023-03-09 05:25:00,,0822.7,5.01,0.00,22.8,21.2,00.0,31.5,24.4,16.8,-000.6,0016.13,0010.71,0010.24
2023-03-09 05:26:00,,0822.6,5.00,0.00,22.7,21.1,00.0,31.5,24.4,16.8,-000.6,0016.19,0010.79,0010.31
2023-03-09 05:27:00,,0822.7,5.00,0.00,22.7,21.1,00.0,31.5,24.4,16.8,-000.5,0016.23,0010.82,0010.36
2023-03-09 05:28:00,,0822.8,5.00,0.00,22.7,21.0,00.0,31.5,24.3,16.8,-000.4,0016.20,0010.88,0010.46
2023-03-09 05:29:00,,0822.8,5.00,0.00,22.7,20.9,00.0,31.4,24.3,16.9,-000.2,0016.23,0010.95,0010.54
2023-03-09 05:30:00,,0823.0,4.99,0.00,22.6,20.9,00.0,31.4,24.3,16.9,-000.3,0016.39,0011.05,0010.63
2023-03-09 05:31:00,,0823.0,4.96,0.00,22.6,20.8,00.0,31.4,24.2,16.9,-000.4,0017.21,0011.14,0010.71
2023-03-09 05:32:00,,0822.9,5.02,0.00,22.6,20.7,00.0,31.4,24.2,16.9,-000.5,0017.52,0011.22,0010.80
2023-03-09 05:33:00,,0822.8,5.00,0.00,22.6,20.7,00.0,31.4,24.2,16.9,-000.4,0017.69,0011.30,0010.88
2023-03-09 05:34:00,,0822.8,5.00,0.00,22.5,20.6,00.0,31.4,24.1,17.0,-000.5,0017.86,0011.39,0010.95
2023-03-09 05:35:00,,0822.8,5.01,0.00,22.5,20.6,00.0,31.3,24.1,17.0,-000.9,0018.06,0011.40,0010.95
2023-03-09 05:36:00,,0822.8,5.01,0.00,22.5,21.0,00.0,31.3,24.2,17.0,-000.9,0018.10,0011.40,0010.95
2023-03-09 05:37:00,,0822.8,5.01,0.00,22.6,22.1,00.0,31.3,24.5,17.0,-000.9,0018.27,0011.49,0011.02
2023-03-09 05:38:00,,0822.9,5.00,0.00,22.7,23.1,00.0,31.3,24.7,16.9,-000.9,0018.54,0011.63,0011.12
2023-03-09 05:39:00,,0823.0,5.01,0.00,22.8,23.0,00.0,31.4,24.7,16.8,-001.0,0018.70,0011.70,0011.18
2023-03-09 05:40:00,,0823.0,4.99,0.00,22.8,22.6,00.0,31.4,24.7,16.8,-001.0,0018.84,0011.78,0011.25
2023-03-09 05:41:00,,0822.9,4.97,0.00,22.8,22.2,00.0,31.4,24.6,16.8,-000.9,0018.98,0011.85,0011.32
2023-03-09 05:42:00,,0822.9,5.00,0.00,22.8,21.9,00.0,31.4,24.6,16.8,-000.9,0018.31,0011.89,0011.37
2023-03-09 05:43:00,,0822.9,5.00,0.00,22.8,21.6,00.0,31.4,24.5,16.8,-000.9,0018.22,0011.91,0011.40
2023-03-09 05:44:00,,0822.9,4.99,0.00,22.7,21.4,00.0,31.4,24.4,16.8,-001.0,0018.28,0011.97,0011.47
2023-03-09 05:45:00,,0823.0,5.01,0.00,22.7,21.2,00.0,31.4,24.4,16.8,-001.1,0018.35,0012.02,0011.55
2023-03-09 05:46:00,,0823.0,5.00,0.00,22.7,21.1,00.0,31.4,24.4,16.8,-001.1,0018.43,0012.14,0011.65
2023-03-09 05:47:00,,0823.0,5.00,0.00,22.7,20.9,00.0,31.4,24.3,16.8,-001.0,0018.67,0012.26,0011.76
2023-03-09 05:48:00,,0823.0,5.00,0.00,22.7,20.9,00.0,31.4,24.3,16.8,-001.0,0019.06,0012.31,0011.82
2023-03-09 05:49:00,,0822.9,5.00,0.00,22.6,20.8,00.0,31.4,24.2,16.9,-000.9,0019.13,0012.33,0011.85
2023-03-09 05:50:00,,0822.9,5.00,0.00,22.6,20.7,00.0,31.4,24.2,16.9,-000.9,0019.25,0012.40,0011.92
2023-03-09 05:51:00,,0822.9,4.99,0.00,22.6,20.7,00.0,31.4,24.2,17.0,-001.1,0019.29,0012.42,0011.95
2023-03-09 05:52:00,,0822.8,4.99,0.00,22.5,20.6,00.0,31.4,24.2,17.0,-001.0,0019.30,0012.44,0011.97
2023-03-09 05:53:00,,0822.8,5.00,0.00,22.5,20.6,00.0,31.3,24.1,17.0,-001.1,0019.33,0012.47,0011.99
2023-03-09 05:54:00,,0822.8,5.00,0.00,22.5,20.6,00.0,31.3,24.1,17.1,-001.2,0019.45,0012.53,0012.01
2023-03-09 05:55:00,,0822.8,5.00,0.00,22.5,20.5,00.0,31.3,24.1,17.9,-001.3,0019.58,0012.57,0012.04
2023-03-09 05:56:00,,0822.8,5.00,0.00,22.4,20.5,00.0,31.3,24.1,17.7,-001.3,0020.11,0012.62,0012.09
2023-03-09 05:57:00,,0822.8,4.99,0.00,22.4,20.5,00.0,31.2,24.1,17.3,-001.4,0020.16,0012.66,0012.15
2023-03-09 05:58:00,,0822.8,5.01,0.00,22.4,21.0,00.0,31.2,24.1,17.2,-001.4,0020.19,0012.69,0012.19
2023-03-09 05:59:00,,0822.8,4.98,0.00,22.5,22.1,00.0,31.2,24.4,17.1,-001.6,0020.02,0012.71,0012.22
